Regional Weather Roundup
Issued by NWS

Home | Current Version | Previous Version | Text Only | Print | Product List | Glossary Off
Versions: 1 2 3 4 5 6 7 8 9 10 11 12 13 14 15 16 17 18 19 20 21 22 23 24 25 26 27 28 29 30 31 32 33 34 35 36 37 38 39 40 41 42 43 44 45 46 47 48 49 50

518
ASUS43 KFSD 251210
RWRSD

WEATHER ROUNDUP FOR SOUTH DAKOTA
NATIONAL WEATHER SERVICE SIOUX FALLS SD
700 AM CDT THU MAY 25 2017

NOTE: "FAIR" INDICATES FEW OR NO CLOUDS BELOW 12,000 FEET WITH NO
SIGNIFICANT WEATHER AND/OR OBSTRUCTIONS TO VISIBILITY.


SDZ001>005-009-010-012>017-251300-
NORTHWEST AND NORTH CENTRAL SOUTH DAKOTA

CITY           SKY/WX    TMP DP  RH WIND       PRES   REMARKS
BUFFALO          N/A     46  43  89 NW12      29.41R
FAITH            N/A     48  46  93 W13       29.41R
MOBRIDGE       PTCLDY    51  44  77 SE10      29.35R
$$

SDZ012>016-024>037-041>051-057-063-072>074-251300-
SOUTHWEST AND SOUTH CENTRAL SOUTH DAKOTA

CITY           SKY/WX    TMP DP  RH WIND       PRES   REMARKS
RAPID CTY ARPT CLOUDY    51  41  68 NW10      29.47R
PIERRE         CLEAR     52  44  74 SE14      29.34S
CUSTER         CLOUDY    46  33  60 CALM      29.53S
ELLSWORTH AFB  CLOUDY    53  40  61 N10       29.47R
PHILIP         PTCLDY    55  48  77 W15G22    29.39R
PINE RIDGE     CLOUDY    52  51  97 S5        29.50R
SPEARFISH      FAIR      50  37  62 W7G13     29.52S
WINNER         FAIR      55  45  68 S17G25    29.42S
$$

SDZ004>011-016>023-039-040-251300-
NORTHEAST SOUTH DAKOTA

CITY           SKY/WX    TMP DP  RH WIND       PRES   REMARKS
ABERDEEN       CLOUDY    52  43  71 SE23G31   29.45F
WATERTOWN      CLOUDY    49  45  86 SE20G29   29.54F
BROOKINGS      PTSUNNY   49  45  86 SE14      29.60S
SISSETON         N/A     48  47  96 S13       29.55F
$$

SDZ017-020-022-023-036>040-048>070-251300-
SOUTHEAST SOUTH DAKOTA

CITY           SKY/WX    TMP DP  RH WIND       PRES   REMARKS
SIOUX FALLS    PTSUNNY   53  47  79 S13       29.61R
HURON          CLEAR     52  44  74 SE20G28   29.48F
CHAMBERLAIN    CLEAR     56  47  70 SE21      29.42F
MITCHELL       PTCLDY    53  44  71 SE22      29.51F
YANKTON          N/A     53  44  71 SE14      29.57R
$$

ABBREVIATIONS USED IN REMARKS
   TC - TEMPERATURE IN CELSIUS
  WCI - WIND CHILL INDEX
   HX - HEAT INDEX
  VSB - VISIBILITY





USA.gov is the U.S. government's official web portal to all federal, state and local government web resources and services.